レモン彗星

C/2013 G6 ( Lemmon )

English version
Home page
Updated on May 7, 2015

---------------------------------------------------------------------

・ プロフィール

発見日 2013年4月13日
発見光度 18.7等
発見者 J. A. Johnson (Mt. Lemmon Survey)

・ 写真集

・ 軌道要素

Epoch 2013 July 7.0 TT = JDT 2456480.5
T 2013 July 25.22897 TT                                 MPC
q   2.0484977            (2000.0)            P               Q
z  +0.0025974      Peri.  215.69260     -0.80804913     +0.09626154
 +/-0.0000014      Node    44.56729     -0.11697399     +0.94069966
e   0.9946792      Incl.  124.08414     -0.57738522     -0.32529659
From 218 observations 2013 Apr. 13-2014 Feb. 5, mean residual 0".5.

・ 星図

・ 光度変化

        m1 = 0.3 + 5 logΔ + 40.0 log r(t - 35)

---------------------------------------------------------------------

軌道要素はM.P.E.C. 2014-D14に掲載されたものです。
光度グラフはComet for Windowsで作成したものです。

---------------------------------------------------------------------

Copyright(C) Seiichi Yoshida (comet@aerith.net). All rights reserved.